Photometre #46[NE_1.6] Toulon AOT

File : 20221124_46.hum

24/11/2022,07:38:15,TEMP=10.1,BA=5.48,STAT.A=4.5,ExtBa=13.03
24/11/2022,07:42:43,TEMP=10.2,BA=5.40,STAT.A=4.5,ExtBa=12.50
24/11/2022,07:47:59,TEMP=10.8,BA=5.40,STAT.A=4.5,ExtBa=13.84
24/11/2022,07:54:21,TEMP=11.2,BA=5.60,STAT.A=4.5,ExtBa=11.53
24/11/2022,08:02:09,TEMP=10.9,BA=5.48,STAT.A=4.5,ExtBa=10.75
24/11/2022,08:12:03,TEMP=10.7,BA=5.48,STAT.A=4.5,ExtBa=10.72
24/11/2022,08:22:57,TEMP=10.9,BA=5.48,STAT.F,ExtBa=10.73
24/11/2022,08:37:57,TEMP=11.2,BA=5.48,STAT.D=4.5,ExtBa=10.78
24/11/2022,08:52:57,TEMP=11.4,BA=5.52,STAT.D=4.5,ExtBa=10.76
24/11/2022,09:07:57,TEMP=11.7,BA=5.52,STAT.D=4.5,ExtBa=10.80
24/11/2022,09:22:57,TEMP=12.2,BA=5.56,STAT.F,ExtBa=10.80
24/11/2022,09:37:50,TEMP=14.3,BA=5.64,STAT.b=4.5
24/11/2022,09:52:55,TEMP=16.1,BA=5.72,STAT.D=4.5,ExtBa=14.00
24/11/2022,10:07:57,TEMP=17.1,BA=5.64,STAT.D=4.5,ExtBa=13.50
24/11/2022,10:22:59,TEMP=17.9,BA=5.64,STAT.F,ExtBa=13.45
24/11/2022,10:37:58,TEMP=18.5,BA=5.44,STAT.D=4.5,ExtBa=12.80
24/11/2022,10:52:57,TEMP=19.8,BA=5.60,STAT.D=4.5,ExtBa=12.91
24/11/2022,11:08:00,TEMP=20.5,BA=6.12,STAT.D=4.5,ExtBa=13.74
24/11/2022,11:22:58,TEMP=18.5,BA=5.64,STAT.F,ExtBa=13.85
24/11/2022,11:37:57,TEMP=18.7,BA=5.64,STAT.D=4.5,ExtBa=11.99
24/11/2022,11:52:55,TEMP=19.3,BA=5.64,STAT.D=4.5,ExtBa=13.97
24/11/2022,12:07:55,TEMP=20.0,BA=5.64,STAT.D=4.5,ExtBa=14.04
24/11/2022,12:22:57,TEMP=19.7,BA=5.64,STAT.F,ExtBa=14.10
24/11/2022,12:37:57,TEMP=18.9,BA=5.68,STAT.D=4.5,ExtBa=15.07
24/11/2022,12:52:56,TEMP=19.2,BA=5.64,STAT.D=4.5,ExtBa=14.01
24/11/2022,13:07:56,TEMP=19.3,BA=5.64,STAT.D=4.5,ExtBa=14.19
24/11/2022,13:22:58,TEMP=18.2,BA=5.64,STAT.F,ExtBa=14.21
24/11/2022,13:37:57,TEMP=17.2,BA=5.64,STAT.D=4.5,ExtBa=11.57
24/11/2022,13:52:56,TEMP=16.8,BA=5.64,STAT.D=4.5,ExtBa=13.89
24/11/2022,14:07:55,TEMP=16.0,BA=5.64,STAT.D=4.5,ExtBa=13.93
24/11/2022,14:22:58,TEMP=15.9,BA=5.64,STAT.F,ExtBa=14.12
24/11/2022,14:38:16,TEMP=16.1,BA=5.48,STAT.A=4.5,ExtBa=11.29
24/11/2022,14:43:46,TEMP=16.0,BA=5.60,STAT.A=4.5,ExtBa=14.82
24/11/2022,14:51:35,TEMP=16.3,BA=5.64,STAT.A=4.5,ExtBa=14.08
24/11/2022,14:57:55,TEMP=16.5,BA=5.64,STAT.A=4.5,ExtBa=13.98
24/11/2022,15:03:11,TEMP=16.2,BA=5.60,STAT.A=4.5,ExtBa=14.90
24/11/2022,15:07:41,TEMP=16.2,BA=5.60,STAT.A=4.5,ExtBa=15.03